Location: Christchurch
(43.5330°S, 172.6330°E)
Time: 04:28:19
(UTC+13:00)

ISS - Pass Details

Date: 01 February 2019
Orbit: 403 x 411 km, 51.6° (Epoch: 19 February)

Event Time Altitude Azimuth Distance (km) Brightness Sun altitude
Exits shadow 03:47:59 11° 69° (ENE) 1,406 -1.0 -22.7°
Drops below altitude 10° 03:48:30 10° 77° (ENE) 1,493 -0.7 -22.7°
Sets 03:51:29 0° 106° (ESE) 2,362 0.8 -22.4°
